Sparta, IL

10:34 AM CDT on October 19, 2019 (GMT -0500)
Sparta Community-Hunter

Weather History for KSAR - August, 2019

Change the Weather History Date:

Wednesday, August 28, 2019

  Actual Average (KBLV) Record (KBLV)
Temperature  
Mean Temperature 70 °F -  
Max Temperature 80 °F 86 °F 100 °F (1990)
Min Temperature 61 °F 62 °F 43 °F (1967)
Cooling Degree Days 6    
Growing Degree Days 20 (Base 50)    
Moisture  
Dew Point 59 °F    
Average Humidity 71    
Maximum Humidity 96    
Minimum Humidity 42    
Precipitation  
Precipitation 0.00 in - - ()
Sea Level Pressure  
Sea Level Pressure 30.08 in    
Wind  
Wind Speed 4 mph (West)    
Max Wind Speed 12 mph    
Max Gust Speed 18 mph    
Visibility 10 miles    
Events      
Averages and records for this station are not official NWS values.
T = Trace of Precipitation, MM = Missing Value Source: NWS Daily Summary

Daily Weather History Graph

Daily Weather History Graph

Search for Another Location

Airport or City:

Astronomy

Aug. 28, 2019 Rise Set
Actual Time 6:24 AM CDT 7:34 PM CDT
Civil Twilight 5:57 AM CDT 8:01 PM CDT
Nautical Twilight 5:25 AM CDT 8:34 PM CDT
Astronomical Twilight 4:51 AM CDT 9:07 PM CDT
Moon 3:59 AM CDT (8/28) 6:44 PM CDT (8/28)
Length of Visible Light 14h 04m
Length of Day
13h 09m
Waning Crescent, 4% of the Moon is Illuminated
Aug 28
Waning Crescent
Aug 30
New
Sep 5
First Quarter
Sep 13
Full
Sep 21
Last Quarter

Hourly Weather History & Observations

Time (CDT) Temp. Heat Index Dew Point Humidity Pressure Visibility Wind Dir Wind Speed Gust Speed Precip Events Conditions
12:15 AM 67.3 °F - 62.2 °F 84% 30.04 in 10.0 mi West 3.5 mph - N/A   Clear
12:35 AM 67.1 °F - 61.7 °F 83% 30.03 in 10.0 mi WSW 3.5 mph - N/A   Clear
12:55 AM 66.4 °F - 61.7 °F 85% 30.04 in 10.0 mi WSW 3.5 mph - N/A   Clear
1:15 AM 66.2 °F - 61.9 °F 86% 30.03 in 10.0 mi WSW 3.5 mph - N/A   Clear
1:35 AM 66.4 °F - 62.1 °F 86% 30.03 in 10.0 mi WSW 3.5 mph - N/A   Clear
1:55 AM 66.7 °F - 62.4 °F 86% 30.03 in 10.0 mi Calm Calm - N/A   Clear
2:15 AM 66.9 °F - 62.8 °F 87% 30.03 in 10.0 mi WSW 4.6 mph - N/A   Clear
2:35 AM 67.1 °F - 63.0 °F 87% 30.03 in 10.0 mi West 3.5 mph - N/A   Clear
2:55 AM 67.1 °F - 63.0 °F 87% 30.03 in 10.0 mi West 3.5 mph - N/A   Clear
3:15 AM 66.6 °F - 63.0 °F 88% 30.04 in 10.0 mi West 3.5 mph - N/A   Clear
3:35 AM 66.2 °F - 63.0 °F 89% 30.05 in 10.0 mi West 3.5 mph - N/A   Clear
3:50 AM 66.0 °F - 62.6 °F 89% 30.04 in 10.0 mi West 3.5 mph - N/A   Clear
4:15 AM 65.3 °F - 62.2 °F 90% 30.05 in 10.0 mi West 3.5 mph - N/A   Clear
4:35 AM 64.4 °F - 62.1 °F 92% 30.06 in 10.0 mi West 4.6 mph - N/A   Clear
4:55 AM 64.0 °F - 61.9 °F 93% 30.06 in 10.0 mi West 3.5 mph - N/A   Clear
5:15 AM 63.5 °F - 61.7 °F 94% 30.06 in 10.0 mi West 3.5 mph - N/A   Clear
5:35 AM 63.0 °F - 61.7 °F 96% 30.07 in 10.0 mi West 3.5 mph - N/A   Clear
5:55 AM 62.8 °F - 61.3 °F 95% 30.07 in 10.0 mi Calm Calm - N/A   Clear
6:15 AM 62.6 °F - 61.0 °F 94% 30.07 in 10.0 mi West 3.5 mph - N/A   Clear
6:35 AM 62.1 °F - 61.0 °F 96% 30.09 in 10.0 mi West 4.6 mph - N/A   Clear
6:55 AM 62.2 °F - 60.8 °F 95% 30.09 in 10.0 mi West 4.6 mph - N/A   Scattered Clouds
7:15 AM 62.4 °F - 60.8 °F 94% 30.09 in 10.0 mi West 4.6 mph - N/A   Scattered Clouds
7:35 AM 63.5 °F - 61.5 °F 93% 30.10 in 10.0 mi West 5.8 mph - N/A   Clear
7:55 AM 64.6 °F - 62.1 °F 92% 30.11 in 10.0 mi West 4.6 mph - N/A   Clear
8:15 AM 65.5 °F - 61.9 °F 88% 30.11 in 10.0 mi West 4.6 mph - N/A   Clear
8:35 AM 66.6 °F - 62.8 °F 88% 30.11 in 10.0 mi WNW 4.6 mph - N/A   Clear
8:55 AM 68.0 °F - 61.9 °F 81% 30.11 in 10.0 mi WNW 4.6 mph - N/A   Clear
9:15 AM 69.3 °F - 62.6 °F 79% 30.12 in 10.0 mi West 4.6 mph - N/A   Clear
9:35 AM 70.7 °F - 61.7 °F 73% 30.12 in 10.0 mi WNW 6.9 mph - N/A   Clear
9:55 AM 71.4 °F - 60.6 °F 69% 30.12 in 10.0 mi WNW 5.8 mph - N/A   Clear
10:15 AM 72.7 °F - 59.7 °F 64% 30.12 in 10.0 mi West 6.9 mph - N/A   Clear
10:35 AM 74.3 °F - 58.6 °F 58% 30.13 in 10.0 mi West 5.8 mph - N/A   Clear
10:55 AM 74.3 °F - 57.0 °F 55% 30.13 in 10.0 mi WNW 9.2 mph - N/A   Clear
11:15 AM 75.6 °F - 57.4 °F 53% 30.13 in 10.0 mi WNW 5.8 mph - N/A   Clear
11:35 AM 76.1 °F - 55.8 °F 49% 30.12 in 10.0 mi West 8.1 mph - N/A   Clear
11:55 AM 76.8 °F - 53.8 °F 45% 30.12 in 10.0 mi WNW 6.9 mph - N/A   Clear
12:15 PM 77.7 °F - 53.8 °F 43% 30.12 in 10.0 mi WNW 8.1 mph - N/A   Clear
12:35 PM 78.6 °F - 55.2 °F 44% 30.12 in 10.0 mi West 9.2 mph - N/A   Clear
12:55 PM 78.1 °F - 55.2 °F 45% 30.12 in 10.0 mi WNW 9.2 mph 16.1 mph N/A   Clear
1:15 PM 78.4 °F - 55.0 °F 44% 30.12 in 10.0 mi NW 8.1 mph - N/A   Clear
1:35 PM 78.8 °F - 55.2 °F 44% 30.11 in 10.0 mi WNW 9.2 mph 18.4 mph N/A   Clear
1:55 PM 79.3 °F - 56.5 °F 45% 30.11 in 10.0 mi West 9.2 mph - N/A   Clear
2:15 PM 79.2 °F - 54.1 °F 42% 30.10 in 10.0 mi NW 11.5 mph - N/A   Clear
2:35 PM 79.7 °F - 55.4 °F 43% 30.10 in 10.0 mi West 10.4 mph - N/A   Clear
2:55 PM 80.6 °F 80.7 °F 56.7 °F 44% 30.09 in 10.0 mi West 5.8 mph - N/A   Clear
3:15 PM 80.1 °F 80.2 °F 55.6 °F 43% 30.09 in 10.0 mi WNW 10.4 mph - N/A   Clear
3:35 PM 80.1 °F 80.3 °F 56.3 °F 44% 30.09 in 10.0 mi West 8.1 mph - N/A   Clear
3:55 PM 79.9 °F - 55.0 °F 42% 30.08 in 10.0 mi WNW 6.9 mph - N/A   Clear
4:15 PM 80.2 °F 80.3 °F 55.2 °F 42% 30.08 in 10.0 mi NW 9.2 mph - N/A   Clear
4:35 PM 80.2 °F 80.4 °F 55.8 °F 43% 30.07 in 10.0 mi NW 8.1 mph - N/A   Clear
4:55 PM 80.1 °F 80.3 °F 56.1 °F 44% 30.07 in 10.0 mi WNW 8.1 mph - N/A   Clear
5:15 PM 79.9 °F - 56.7 °F 45% 30.07 in 10.0 mi NW 8.1 mph - N/A   Clear
5:35 PM 79.7 °F - 55.8 °F 44% 30.07 in 10.0 mi WNW 8.1 mph - N/A   Clear
5:55 PM 79.3 °F - 56.1 °F 45% 30.06 in 10.0 mi WNW 5.8 mph - N/A   Clear
6:15 PM 78.8 °F - 56.5 °F 46% 30.06 in 10.0 mi WNW 5.8 mph - N/A   Clear
6:35 PM 77.9 °F - 57.0 °F 48% 30.05 in 10.0 mi Calm Calm - N/A   Clear
6:55 PM 77.0 °F - 57.4 °F 51% 30.05 in 10.0 mi West 3.5 mph - N/A   Clear
7:15 PM 75.6 °F - 58.3 °F 55% 30.05 in 10.0 mi Calm Calm - N/A   Clear
7:35 PM 73.9 °F - 58.6 °F 59% 30.05 in 10.0 mi Calm Calm - N/A   Clear
7:55 PM 72.1 °F - 58.8 °F 63% 30.05 in 10.0 mi Calm Calm - N/A   Clear
8:15 PM 69.8 °F - 59.7 °F 70% 30.05 in 10.0 mi Calm Calm - N/A   Clear
8:35 PM 66.9 °F - 59.7 °F 78% 30.05 in 10.0 mi Calm Calm - N/A   Clear
8:55 PM 66.2 °F - 59.9 °F 80% 30.06 in 10.0 mi Calm Calm - N/A   Clear
9:15 PM 64.9 °F - 59.9 °F 84% 30.06 in 10.0 mi Calm Calm - N/A   Clear
9:35 PM 64.9 °F - 59.9 °F 84% 30.06 in 10.0 mi Calm Calm - N/A   Clear
9:55 PM 63.9 °F - 60.4 °F 89% 30.07 in 10.0 mi Calm Calm - N/A   Clear
10:15 PM 64.2 °F - 60.1 °F 86% 30.07 in 10.0 mi Calm Calm - N/A   Clear
10:35 PM 62.4 °F - 59.5 °F 90% 30.07 in 10.0 mi Calm Calm - N/A   Clear
10:55 PM 63.0 °F - 59.9 °F 90% 30.07 in 10.0 mi Calm Calm - N/A   Clear
11:15 PM 61.7 °F - 59.9 °F 94% 30.07 in 10.0 mi Calm Calm - N/A   Clear
11:35 PM 62.4 °F - 59.2 °F 89% 30.07 in 10.0 mi Calm Calm - N/A   Clear
11:55 PM 63.7 °F - 59.0 °F 85% 30.07 in 10.0 mi Calm Calm - N/A   Clear